Overview Statistics Trail Chart Weather Telemetry Raw packets
 

This is the latest recevied weather packets stored in our database for station/object LA4M-10. If no packets are shown the sender has not sent any weather packets the latest 10 day(s).

<< 14 15 16 17 18 19 20 >>
Time Temp. Humidity Pressure Rain* Wind** Luminosity Snow
1788304428 12.78° C 100% 938.2 hPa - - - -
1788303528 12.22° C 100% 938.1 hPa - - - -
1788302628 11.67° C 100% 938.5 hPa - - - -
1788301728 11.11° C 100% 938.5 hPa - - - -
1788300828 11.11° C 100% 938.6 hPa - - - -
1788299927 11.11° C 100% 938.9 hPa - - - -
1788299028 11.11° C 100% 938.8 hPa - - - -
1788298127 11.11° C 100% 939.1 hPa - - - -
1788297227 11.11° C 100% 939.3 hPa - - - -
1788296324 11.11° C 100% 939.6 hPa - - - -
1788295424 11.11° C 100% 939.7 hPa - - - -
1788294524 11.67° C 100% 940.1 hPa - - - -
1788293624 11.67° C 100% 939.9 hPa - - - -
1788292724 11.67° C 100% 940.7 hPa - - - -
1788291824 11.67° C 100% 941.1 hPa - - - -
1788290924 11.67° C 100% 940.9 hPa - - - -
1788290024 11.67° C 100% 940.8 hPa - - - -
1788289124 12.22° C 100% 940.7 hPa - - - -
1788288223 11.67° C 100% 940.8 hPa - - - -
1788287323 11.67° C 100% 941.1 hPa - - - -
1788286423 11.67° C 100% 941.2 hPa - - - -
1788285523 11.67° C 100% 941.3 hPa - - - -
1788284623 11.67° C 100% 941.3 hPa - - - -
1788283723 11.67° C 100% 941.4 hPa - - - -
1788282823 12.22° C 100% 941.5 hPa - - - -

* Rain since midnight (hover to see other rain measurements)
** Current wind speed in m/s (hover to see current wind gust speed)